Location: ????????
(38.4362°N, 22.8767°E)
Time: 19:58:10
(UTC+00:00)

Cosmos 2369 Rocket - Pass Details

Date: 23 April 2024
Orbit: 830 x 850 km, 71.0° (Epoch: 27 May)

Event Time Altitude Azimuth Distance (km) Brightness Sun altitude
Rises 00:57:02 0° 345° (NNW) 3,384 5.8 -28.0°
Reaches altitude 10° 00:59:43 10° 355° (N) 2,444 5.1 -27.7°
Maximum altitude 01:04:46 34° 60° (ENE) 1,340 3.7 -27.0°
Drops below altitude 10° 01:09:47 10° 124° (SE) 2,429 4.7 -26.3°
Sets 01:12:26 0° 134° (SE) 3,359 5.4 -25.9°
